DW9615 Home Hill AU current weather conditions

sailwx.info

Wind from 061 at 6 knots gusting 14

Air temperature 30.0° C
Dewpoint 24.8° C

Last reported at 2016-Feb-08 07:34 UTC.
Time now 2016-Feb-08 08:13 UTC

Location: S 19°40' E 147°25'.
View on Google Maps.

See reports from other nearby stations

  
Tides and Currents Weather Stations Pressure Air Temp Water Temp Dewpoint Dewpoint Depression Visibility Wind Speed Wind Dir Waves Ship Positions
date/time (UTC)wind fromknots sea level pressurealtimeterstation pressurevisibilityair tempwater tempwave heightnotes
2016-Feb-08 07:34 061 6 gusting 14 30.0
2016-Feb-08 07:19 069 6 gusting 16 30.6
2016-Feb-08 07:04 067 7 gusting 13 30.6
2016-Feb-08 06:49 081 6 gusting 13 31.1
2016-Feb-08 06:34 077 7 gusting 12 31.1
2016-Feb-08 06:19 039 6 gusting 14 30.6
2016-Feb-08 06:04 110 6 gusting 13 31.7
2016-Feb-08 05:49 056 6 gusting 10 31.7
2016-Feb-08 05:34 100 3 gusting 12 31.7
2016-Feb-08 05:19 039 3 gusting 9 31.1
2016-Feb-08 05:04 049 6 gusting 12 31.7
2016-Feb-08 04:49 049 6 gusting 12 31.7
2016-Feb-08 04:34 078 5 gusting 8 32.8
2016-Feb-08 04:19 096 2 gusting 6 33.3
2016-Feb-08 04:04 119 1 gusting 4 33.9
2016-Feb-08 03:49 081 0 gusting 2 32.8
2016-Feb-08 03:34 123 1 gusting 5 33.3
2016-Feb-08 03:19 156 0 gusting 5 32.8
2016-Feb-08 03:04 157 0 gusting 4 33.3
2016-Feb-08 02:50 139 2 gusting 6 32.2
2016-Feb-08 02:34 137 1 gusting 4 32.2
2016-Feb-08 02:19 130 1 gusting 5 32.8
2016-Feb-08 02:04 123 0 gusting 3 31.7
2016-Feb-08 01:49 158 31.1
2016-Feb-08 01:34 133 1 gusting 6 32.2
2016-Feb-08 01:18 140 2 gusting 6 31.1
2016-Feb-08 01:03 146 2 gusting 6 31.7
2016-Feb-08 00:48 100 3 gusting 7 31.7
2016-Feb-08 00:33 126 2 gusting 5 31.1
2016-Feb-08 00:18 156 3 gusting 5 30.0
2016-Feb-08 00:03 160 2 gusting 7 30.0
2016-Feb-07 23:48 146 3 gusting 7 30.0
2016-Feb-07 23:33 116 1 gusting 6 30.0
2016-Feb-07 23:18 127 2 gusting 6 29.4
2016-Feb-07 23:03 137 1 gusting 4 29.4
2016-Feb-07 22:48 122 1 gusting 5 28.9
2016-Feb-07 22:33 170 2 gusting 5 28.3
2016-Feb-07 22:18 244 1 gusting 4 28.3
2016-Feb-07 22:03 175 1 gusting 4 27.2
2016-Feb-07 21:48 136 27.2
2016-Feb-07 21:33 141 0 gusting 3 26.7
2016-Feb-07 21:18 141 1 gusting 3 25.6
2016-Feb-07 21:03 094 25.6
2016-Feb-07 20:48 125 25.0
2016-Feb-07 20:33 125 25.0
2016-Feb-07 20:18 125 25.0
2016-Feb-07 20:03 125 25.0
2016-Feb-07 19:48 125 25.0
2016-Feb-07 19:33 125 25.0
2016-Feb-07 19:18 125 0 gusting 2 25.6
2016-Feb-07 19:03 126 25.6
2016-Feb-07 18:48 128 25.6
2016-Feb-07 18:33 129 25.6
2016-Feb-07 18:18 130 26.1
2016-Feb-07 18:03 123 1 gusting 3 25.6
2016-Feb-07 17:48 123 25.6
2016-Feb-07 17:33 123 25.6
2016-Feb-07 17:18 123 25.6
2016-Feb-07 17:03 123 25.6
2016-Feb-07 16:47 123 25.6
2016-Feb-07 16:32 123 25.6
2016-Feb-07 16:17 123 25.6
2016-Feb-07 16:02 123 25.6
2016-Feb-07 15:47 123 0 gusting 3 25.6
2016-Feb-07 15:32 126 0 gusting 2 25.6
2016-Feb-07 15:17 127 26.1
2016-Feb-07 15:02 127 0 gusting 4 26.1
2016-Feb-07 14:47 123 1 gusting 4 26.1
2016-Feb-07 14:32 134 1 gusting 4 26.1
2016-Feb-07 14:17 139 1 gusting 3 26.1
2016-Feb-07 14:02 115 0 gusting 2 26.1
2016-Feb-07 13:47 121 0 gusting 3 26.7
2016-Feb-07 13:32 101 0 gusting 4 26.7
2016-Feb-07 13:17 096 26.7
2016-Feb-07 13:02 096 26.7
2016-Feb-07 12:47 105 0 gusting 4 27.2
2016-Feb-07 12:32 084 1 gusting 6 27.2
2016-Feb-07 12:17 112 27.2
2016-Feb-07 12:02 119 27.2
2016-Feb-07 11:47 119 27.8
2016-Feb-07 11:32 119 27.8
2016-Feb-07 11:17 119 27.8
2016-Feb-07 11:02 119 27.8
2016-Feb-07 10:47 119 27.8
2016-Feb-07 10:32 119 27.8
2016-Feb-07 10:17 119 0 gusting 2 27.8
2016-Feb-07 10:02 119 0 gusting 2 28.3
2016-Feb-07 09:47 085 0 gusting 3 28.3
2016-Feb-07 09:32 059 1 gusting 6 28.3
2016-Feb-07 09:17 045 1 gusting 6 28.3
2016-Feb-07 09:02 073 1 gusting 6 28.3
2016-Feb-07 08:47 062 1 gusting 6 28.3
2016-Feb-07 08:32 067 2 gusting 6 28.9
2016-Feb-07 08:17 071 1 gusting 5 28.9
2016-Feb-07 08:02 088 0 gusting 6 28.9
2016-Feb-07 07:47 052 1 gusting 4 28.9
2016-Feb-07 07:32 048 3 gusting 8 29.4
2016-Feb-07 07:17 046 4 gusting 8 29.4
2016-Feb-07 07:02 071 2 gusting 6 29.4
2016-Feb-07 06:47 039 3 gusting 9 30.0
2016-Feb-07 06:32 039 4 gusting 8 30.0
2016-Feb-07 06:17 037 3 gusting 8 30.0
2016-Feb-07 06:02 058 1 gusting 6 30.0
2016-Feb-07 05:47 054 2 gusting 5 30.0
2016-Feb-07 05:32 054 2 gusting 6 30.0
2016-Feb-07 05:17 073 0 gusting 3 28.9
2016-Feb-07 05:02 057 0 gusting 2 27.8
2016-Feb-07 04:47 344 27.2
2016-Feb-07 04:32 343 26.7
2016-Feb-07 04:17 343 26.1
2016-Feb-07 04:02 341 25.6
2016-Feb-07 03:46 031 25.6
2016-Feb-07 03:31 352 26.1
2016-Feb-07 03:16 296 1 gusting 6 26.1
2016-Feb-07 03:01 343 0 gusting 4 27.2
2016-Feb-07 02:46 062 3 gusting 11 28.3
2016-Feb-07 02:31 252 1 gusting 4 31.7
2016-Feb-07 02:16 064 0 gusting 7 32.8
2016-Feb-07 02:01 094 1 gusting 4 33.9
2016-Feb-07 01:46 106 1 gusting 8 33.9
2016-Feb-07 01:31 069 3 gusting 6 33.9
2016-Feb-07 01:16 109 2 gusting 4 32.8
2016-Feb-07 01:01 094 1 gusting 7 32.8
2016-Feb-07 00:46 067 1 gusting 5 32.8
2016-Feb-07 00:31 159 2 gusting 5 32.2
2016-Feb-07 00:16 143 0 gusting 3 31.7
2016-Feb-07 00:01 080 1 gusting 6 32.2
2016-Feb-06 23:46 061 0 gusting 5 32.2
2016-Feb-06 23:31 076 31.1
2016-Feb-06 23:16 067 0 gusting 6 31.1
2016-Feb-06 23:01 061 0 gusting 6 30.6
2016-Feb-06 22:46 088 1 gusting 3 30.0
2016-Feb-06 22:31 102 1 gusting 3 29.4
2016-Feb-06 22:16 094 0 gusting 3 28.9
2016-Feb-06 22:01 089 1 gusting 5 28.3
2016-Feb-06 21:45 083 0 gusting 3 27.8
2016-Feb-06 21:30 138 1 gusting 4 27.2
2016-Feb-06 21:15 143 1 gusting 4 26.7
2016-Feb-06 21:00 134 0 gusting 5 26.7
2016-Feb-06 20:45 116 1 gusting 3 26.1
2016-Feb-06 20:30 137 0 gusting 3 26.1
2016-Feb-06 20:16 125 0 gusting 3 26.1
2016-Feb-06 20:00 127 26.1
2016-Feb-06 19:45 127 0 gusting 1 26.1
2016-Feb-06 19:30 127 26.1
2016-Feb-06 19:15 127 26.1
2016-Feb-06 19:00 127 26.1
2016-Feb-06 18:45 127 26.1
2016-Feb-06 18:30 127 26.1
2016-Feb-06 18:15 127 26.1
2016-Feb-06 18:00 127 26.1
2016-Feb-06 17:45 115 0 gusting 3 26.7
2016-Feb-06 17:30 093 26.7
2016-Feb-06 17:15 086 0 gusting 2 26.7
2016-Feb-06 17:00 087 26.7
2016-Feb-06 16:45 086 0 gusting 2 26.7
2016-Feb-06 16:30 087 26.7
2016-Feb-06 16:15 087 0 gusting 2 26.7
2016-Feb-06 16:00 087 26.7
2016-Feb-06 15:45 086 26.7
2016-Feb-06 15:30 086 26.7
2016-Feb-06 15:15 054 26.7
2016-Feb-06 15:00 054 26.7
2016-Feb-06 14:45 054 26.7
2016-Feb-06 14:15 054 26.7
2016-Feb-06 14:00 054 26.7
2016-Feb-06 13:45 054 26.7
2016-Feb-06 13:30 054 27.2
2016-Feb-06 13:15 053 26.7
2016-Feb-06 13:00 050 26.7
2016-Feb-06 12:45 039 27.2
2016-Feb-06 12:30 039 27.2
2016-Feb-06 12:15 039 27.2
2016-Feb-06 12:00 039 27.2
2016-Feb-06 11:45 039 27.2
2016-Feb-06 11:30 039 27.2
2016-Feb-06 11:15 039 27.2
2016-Feb-06 11:00 039 27.8
2016-Feb-06 10:45 039 27.8
2016-Feb-06 10:29 031 1 gusting 4 27.8
2016-Feb-06 10:14 050 1 gusting 4 27.8
2016-Feb-06 09:59 063 0 gusting 2 27.8
2016-Feb-06 09:44 064 27.8
2016-Feb-06 09:29 062 27.8
2016-Feb-06 09:14 066 0 gusting 3 27.8
2016-Feb-06 08:59 096 0 gusting 2 28.3
2016-Feb-06 08:44 073 0 gusting 5 28.3
2016-Feb-06 08:29 073 2 gusting 6 28.3
2016-Feb-06 08:14 104 1 gusting 5 28.3